Location: Chippewa Lake
(41.0698°N, 81.9010°W)
Time: 00:51:03
(UTC+00:00)

Cosmos 2084 - Pass Details

Date: 24 September 2021
Orbit: 529 x 652 km, 62.8° (Epoch: 17 October)

Event Time Altitude Azimuth Distance (km) Brightness Sun altitude
Rises 09:26:14 0° 165° (SSE) 2,651 6.8 -21.4°
Reaches altitude 10° 09:29:39 10° 134° (SE) 1,773 6.2 -20.8°
Maximum altitude 09:31:10 12° 111° (ESE) 1,661 6.4 -20.5°
Drops below altitude 10° 09:32:41 10° 88° (E) 1,789 7.0 -20.3°
Sets 09:36:10 0° 57° (ENE) 2,706 8.3 -19.6°
